User: anonymous   Login
Location: Irma
(52.9170°N, 111.2330°W)
Time: 06:50:38
(UTC-07:00)
Language:

deb Chang Zheng 4 - Orbit

View from above orbital plane
View from above orbital plane
View from above satellite
View from above satellite

Ground track
Ground track

The orbit data is extracted from the following two-line orbital elements,

1 20847U 90081K   16039.52976676  .00008924  00000-0  12573-2 0  9999
2 20847  98.5717 246.5041 0017598 200.6291 159.4209 14.77428191332688
Epoch (UTC): 08 February 2016 12:42:51
Eccentricity: 0.0017598
inclination: 98.5717°
perigee height: 625 km
apogee height: 650 km
right ascension of ascending node: 246.5041°
argument of perigee: 200.6291°
revolutions per day: 14.77428191
mean anomaly at epoch: 159.4209°
orbit number at epoch: 33268

The dashed part of the orbit path shows where the satellite is in the earth's shadow,  

DLR